Location: Unspecified
(31.3061°N, 0.0000°E)
Time: 01:14:54
(UTC+00:00)

Transit 2A - All Passes

Search period start: 04 April 2026 00:00
Search period end: 14 April 2026 00:00
Orbit: 591 x 953 km, 66.7° (Epoch: 29 March)

Date Brightness Start Highest point End Pass type
(mag) Time Alt. Az. Time Alt. Az. Time Alt. Az.
4 Apr - 01:18:43 10° SSW 01:24:58 77° WNW 01:31:16 10° NNE visible
4 Apr - 03:06:41 10° WNW 03:08:58 12° NW 03:11:15 10° NNW visible
4 Apr - 10:11:56 10° N 10:16:23 27° NE 10:20:28 10° ESE daylight
4 Apr - 11:55:05 10° NW 11:59:15 26° WSW 12:03:06 10° SSW daylight
5 Apr - 00:42:22 10° SSW 00:48:36 71° ESE 00:54:51 10° NNE visible
5 Apr - 02:28:03 10° W 02:32:12 18° NW 02:36:19 10° N visible
5 Apr - 09:36:15 10° N 09:39:44 18° NE 09:43:00 10° E daylight
5 Apr - 11:18:11 10° NW 11:23:03 44° WSW 11:27:27 10° S daylight
6 Apr - 00:06:22 10° S 00:12:17 46° ESE 00:18:14 10° NE visible
6 Apr - 01:50:21 10° WSW 01:55:32 26° NW 02:00:41 10° N visible
6 Apr - 09:01:26 10° NNE 09:02:58 11° NE 09:04:28 10° ENE daylight
6 Apr - 10:41:36 10° NNW 10:46:46 78° WSW 10:51:24 10° SSE daylight
6 Apr - 23:30:44 10° SSE 23:36:01 30° ESE 23:41:22 10° NE visible
7 Apr - 01:13:07 10° SW 01:18:56 39° WNW 01:24:44 10° N visible
7 Apr - 10:05:14 10° NNW 10:10:22 62° ENE 10:14:59 10° SE daylight
7 Apr - 22:55:38 10° SSE 22:59:50 19° ESE 23:04:03 10° ENE night (unlit)
8 Apr - 00:36:16 10° SW 00:42:25 58° WNW 00:48:35 10° NNE visible
8 Apr - 09:29:04 10° N 09:33:52 37° ENE 09:38:13 10° SE daylight
8 Apr - 11:13:08 10° WNW 11:16:26 18° WSW 11:19:33 10° SSW daylight
8 Apr - 22:21:55 10° ESE 22:23:42 11° ESE 22:25:30 10° E night (unlit)
8 Apr - 23:59:42 10° SSW 00:05:59 87° WNW 00:12:17 10° NNE visible
9 Apr - 01:46:48 10° W 01:49:50 14° NW 01:52:51 10° NNW visible
9 Apr - 08:53:09 10° N 08:57:16 23° NE 09:01:05 10° ESE daylight
9 Apr - 10:35:54 10° NW 10:40:16 30° WSW 10:44:18 10° S daylight
9 Apr - 23:23:28 10° S 23:29:38 62° ESE 23:35:48 10° NNE visible
10 Apr - 01:08:34 10° W 01:13:06 20° NW 01:17:35 10° N visible
10 Apr - 08:17:39 10° NNE 08:20:34 15° NE 08:23:21 10° E daylight
10 Apr - 09:59:06 10° NW 10:04:02 53° WSW 10:08:30 10° S daylight
10 Apr - 22:47:33 10° S 22:53:20 40° ESE 22:59:06 10° NE visible
11 Apr - 00:31:02 10° WSW 00:36:27 30° WNW 00:41:49 10° N visible
11 Apr - 09:22:35 10° NNW 09:27:43 88° ENE 09:32:19 10° SSE daylight
11 Apr - 22:12:04 10° SSE 22:17:05 26° ESE 22:22:07 10° NE night (unlit)
11 Apr - 23:53:55 10° SW 23:59:54 44° WNW 00:05:49 10° N visible
12 Apr - 08:46:17 10° NNW 08:51:17 52° ENE 08:55:47 10° SE daylight
12 Apr - 10:31:47 10° W 10:33:33 12° WSW 10:35:17 10° SW daylight
12 Apr - 21:37:14 10° SE 21:40:54 16° ESE 21:44:34 10° ENE night (unlit)
12 Apr - 23:17:09 10° SW 23:23:25 67° WNW 23:29:36 10° NNE visible
13 Apr - 01:07:08 10° NW 01:07:30 10° NW 01:07:52 10° NW visible
13 Apr - 08:10:11 10° N 08:14:44 31° ENE 08:18:54 10° ESE daylight
13 Apr - 09:53:46 10° WNW 09:57:27 21° WSW 10:00:52 10° SSW daylight
13 Apr - 22:40:42 10° SSW 22:46:59 82° ESE 22:53:15 10° NNE visible
